Location: Darlington Observatory
(36.4817°N, 105.8156°W)
Time: 22:25:38
(UTC-06:00)

Daily predictions for brighter satellites

Satellite Brightness Start Highest point End
(mag) Time Altitude Azimuth Time Altitude Azimuth Time Altitude Azimuth
ALOS 3.5 18:36:35 10° ESE 18:39:57 20° ENE 18:43:20 10° NNE
Cosmos 1315 Rocket 3.3 18:37:39 10° N 18:41:32 40° ENE 18:45:25 10° SSE
Meteor 2-1 Rocket 4.3 18:36:50 10° S 18:42:35 74° E 18:48:29 10° NNE
Cosmos 921 Rocket 3.2 18:39:07 10° N 18:43:27 51° ENE 18:47:39 10° SSE
Cosmos 2218 Rocket 4.4 18:37:29 10° SSW 18:43:34 68° W 18:49:43 10° N
Ariane Rocket 3.5 18:38:42 10° S 18:43:46 68° WSW 18:48:52 10° NNW
Cosmos 1743 Rocket 3.7 18:41:12 10° N 18:45:38 86° W 18:50:03 10° S
SKYMED 2 3.9 18:41:33 10° NNE 18:45:42 43° E 18:49:50 10° S
Cosmos 1484 Rocket 3.0 18:44:13 10° S 18:47:54 71° W 18:51:37 10° NNW
GP-B 3.1 18:44:35 10° N 18:49:03 78° E 18:53:28 10° S
Cosmos 1842 Rocket 4.1 18:47:53 10° SSW 18:52:19 66° W 18:56:45 10° N
Cosmos 1626 2.8 18:49:56 10° NNW 18:53:38 60° W 18:57:17 10° S
Cosmos 1727 Rocket 4.1 18:47:34 10° N 18:53:58 87° E 19:00:17 10° S
Aureole 2 4.4 18:51:07 10° N 18:54:20 64° ENE 18:58:03 10° SSE
Cosmos 1908 3.2 18:53:58 10° S 18:57:52 77° E 19:01:46 10° N
Cosmos 1703 3.5 18:54:15 10° N 18:58:09 74° W 19:02:02 10° S
MONITOR-E 4.4 18:58:21 10° SSE 19:01:18 45° ENE 19:04:16 10° N
Cosmos 2333 4.4 18:58:23 10° N 19:03:56 49° ENE 19:09:30 10° SE
Molniya-1 3.5 19:03:11 10° S 19:04:19 20° SE 19:04:19 20° SE
Cosmos 1500 Rocket 4.0 19:01:24 10° NNW 19:05:42 66° W 19:09:57 10° S
Cosmos 44 3.6 19:02:49 10° SW 19:07:07 59° WNW 19:11:24 10° NNE
H-2A R/B 4.3 19:07:18 15° E 19:08:18 16° ENE 19:10:48 10° NNE
Aureole 2 Rocket 3.6 19:05:21 10° N 19:08:54 30° ENE 19:12:31 10° SE
Cosmos 1269 Rocket 4.0 19:03:48 10° S 19:09:03 76° ESE 19:14:21 10° NNE
Cosmos 2237 4.2 19:03:33 10° NNW 19:09:19 87° ENE 19:15:01 10° SSE
Cosmos 2237 Rocket 3.5 19:07:11 10° N 19:11:18 20° NE 19:13:39 16° E
RESURS DK-1 3.8 19:08:36 10° NW 19:12:30 41° WSW 19:16:23 10° S
Cosmos 2227 Rocket 3.0 19:11:26 10° SSE 19:16:13 29° ESE 19:21:01 10° NE
Iridium 4 Rocket 3.7 19:15:26 10° S 19:20:59 72° E 19:26:51 10° N
Cosmos 1300 3.1 19:18:13 10° SSE 19:21:48 40° E 19:25:25 10° NNE
SPOT 3 Rocket 3.5 19:16:43 10° SSE 19:21:54 80° ENE 19:27:08 10° N
Cosmos 1452 Rocket 4.4 19:18:14 10° NNW 19:23:19 52° WSW 19:28:24 10° S
SL-16 R/B 4.2 19:22:33 10° NE 19:23:15 10° NE 19:23:15 10° NE
Atlas Centaur 2 3.5 19:20:17 10° WSW 19:23:42 23° SSW 19:27:41 10° SE
NOSS 0 Rocket 4.4 19:18:48 10° N 19:24:28 37° ENE 19:28:59 15° ESE
Gbstr 26 Del rocket 3.8 19:20:31 10° NW 19:25:30 54° NE 19:29:43 20° ESE
Cosmos 494 Rocket 4.3 19:22:26 10° S 19:27:12 41° ESE 19:31:59 10° NNE
BREEZE-M DEB (TANK) 4.4 19:23:23 10° NW 19:28:15 65° NE 19:50:26 10° ESE
Sich 1 3.4 19:24:27 10° N 19:28:37 41° E 19:32:46 10° SSE
Abrixas 4.4 19:29:31 10° WNW 19:30:40 13° NNW 19:31:17 12° N
Cosmos 2360 Rocket 3.8 19:26:20 10° NW 19:31:31 37° WSW 19:36:40 10° S
COSMO-SKYMED 1 3.6 19:29:32 10° N 19:33:44 49° WNW 19:37:54 10° SSW
Cosmos 1980 4.3 19:30:57 10° N 19:36:02 33° ENE 19:37:55 27° E
Cosmos 2098 Rocket 3.6 19:32:43 10° S 19:37:14 78° W 19:43:04 10° N
Cosmos 1110 Rocket 4.3 19:33:48 10° N 19:38:51 42° ENE 19:41:40 23° SE
BREEZE-M R/B 2.0 19:37:46 10° SW 19:40:16 89° WNW 19:41:04 46° NE
CZ-4C R/B 3.0 19:35:31 10° SW 19:40:29 49° NW 19:46:09 10° NNE
FENGYUN 3A 3.6 19:35:56 10° SSE 19:41:19 84° ENE 19:46:46 10° N
PSLV R/B 3.1 19:40:43 10° WSW 19:43:50 69° NNW 19:44:13 60° NNE
Hubble Space Telescope 2.4 19:41:23 10° SW 19:44:36 22° S 19:45:28 20° SSE
Cosmos 1805 Rocket 3.6 19:40:29 10° N 19:44:53 80° W 19:49:18 10° S
COSMOS 2428 3.0 19:40:25 10° NNW 19:46:04 69° WSW 19:51:43 10° S
Cosmos 2219 4.1 19:41:30 10° SW 19:47:04 51° WNW 19:52:40 10° N
Cosmos 2228 Rocket 4.2 19:43:35 10° SSE 19:46:04 27° SE 19:46:04 27° SE
Cosmos 2333 Rocket 2.2 19:43:17 10° NNW 19:49:00 63° ENE 19:53:15 18° SE
Meteor 2-10 3.8 19:44:42 10° S 19:49:44 86° E 19:54:52 10° N
Cosmos 1726 3.4 19:49:27 10° SSW 19:52:57 41° W 19:56:28 10° N
Cosmos 2297 Rocket 2.3 19:47:50 10° S 19:53:17 51° ESE 19:56:00 28° NE
Cosmos 1666 Rocket 3.3 19:49:58 10° N 19:54:20 81° E 19:58:38 10° S
Cosmos 1328 Rocket 3.5 19:51:15 10° S 19:55:34 56° E 19:57:03 36° NE
Cosmos 1633 Rocket 2.9 19:54:31 10° N 19:58:57 74° E 20:02:06 19° SSE
Cosmos 2251 Rocket 3.4 19:57:57 10° S 20:03:11 67° ESE 20:06:04 27° NNE
Cosmos 2082 3.6 19:58:09 10° S 20:03:46 62° ESE 20:06:19 33° NE
FengYun 1-2 T 4.2 20:10:29 10° SSE 20:15:58 83° WSW 20:21:29 10° NNW
ALOS 3.8 20:12:50 10° SSW 20:17:07 36° W 20:21:25 10° NNW
Cosmos 2219 Rocket 2.6 20:12:44 10° NNW 20:18:14 60° WSW 20:23:28 11° S
Cosmos 2084 3.8 20:14:31 10° NW 20:17:29 52° NW 20:17:29 52° NW
Meteor 2-2 Rocket 4.4 20:13:32 10° SSW 20:19:13 72° W 20:24:52 10° N
Delta 2 Rocket 4.4 20:15:54 10° W 20:18:40 33° SW 20:18:40 33° SW
OAO 1 Rocket 4.4 20:14:55 10° W 20:20:10 66° S 20:20:32 64° SSE
Thor Agena Rocket 4.4 20:19:47 10° N 20:24:38 46° WNW 20:29:25 10° SW
Cosmos 1331 Rocket 4.2 20:27:00 10° NNW 20:32:11 68° WSW 20:32:59 58° SSW
USA 267 3.1 20:35:57 66° SE 20:35:57 66° SE 20:42:24 10° SSW
Meteor 1-27 4.2 20:31:16 10° S 20:36:59 86° W 20:42:48 10° N
BREEZE-M DEB (TANK) 4.4 20:41:08 10° WNW 20:45:54 28° NNW 20:45:54 28° NNW
Cosmos 2237 Rocket 2.7 20:50:09 10° NNW 20:55:33 55° W 20:55:33 55° W
MOS 1-B Rocket 4.2 20:56:56 63° WNW 20:56:56 63° WNW 21:02:20 10° NNW
Cosmos 2227 Rocket 3.6 20:54:59 10° SW 21:00:05 35° WNW 21:03:07 21° N
SL-16 R/B 4.0 21:03:03 10° NNW 21:05:09 23° NNW 21:05:09 23° NNW
Cosmos 2297 Rocket 4.3 21:33:23 10° WSW 21:37:36 21° WNW 21:37:56 21° NW
